Карточка аэропорта URKK

Внимание!
Информация на этой странице в стадии наполнения.
Если вы не увидели какой-то информации, или заметили неточность - пожалуйста сообщите нам!
Спасибо!
Команда RU-STAFF
Название аэропортаПашковский
Название аэропорта (англ.)Pashkovskiy
Превышение120 ft. (36.6 m.)
Координаты45°2.0820000000001', 39°10.218'
Высота перехода4000 ft
Эшелон переходаFL60 (QNH >= 977); FL70 (QNH < 977)
Коды ответчика1030-1037
Зона ОрВДРостов-на-Дону РПИ (URRV)
Данные METARURKK 262130Z VRB01MPS 0050 R05R/P2000N FZFG VV001 M03/M04 Q1023 R05R/CLRD70 NOSIG RMK QBB040 OBST OBSC QFE764
Проноз погоды (TAF)URKK 261946Z 2621/2721 12003G08MPS 0200 FZFG BKN001 TEMPO 2621/2710 1100 BR BKN002 BECMG 2710/2712 6000 NSW SCT016
NOTAMshow/hide NOTAM
AWOS   TABLE

Информация о ВПП

ВПП Длина ВПП (м.) Покрытие Курс ВПП Частота ILS
05L2200Асфальтобетон46 
05R3000Железобетон46 
23R2200Асфальтобетон226 
23L3000Железобетон226 

Диспетчерские позиции

Позывной Наименование органа УВД Частота
URKK_TWRКраснодар-Вышка118.2
URKK_R_APPКраснодар-Круг121.3
URKK_APPКраснодар-Подход129.6
URKK_GNDКраснодар-Руление119.0



Спутниковое изображение